Regional Weather Roundup
Issued by NWS

Home | Current Version | Previous Version | Text Only | Print | Product List | Glossary On
Versions: 1 2 3 4 5 6 7 8 9 10 11 12 13 14 15 16 17 18 19 20 21 22 23 24 25 26 27 28 29 30 31 32 33 34 35 36 37 38 39 40 41 42 43 44 45 46 47 48 49 50
000
ASUS43 KDMX 280707
RWRIA

WEATHER ROUNDUP FOR IOWA
NATIONAL WEATHER SERVICE DES MOINES IA
200 AM CDT THU MAY 28 2015

NOTE: "FAIR" INDICATES FEW OR NO CLOUDS BELOW 12,000 FEET WITH NO
SIGNIFICANT WEATHER AND/OR OBSTRUCTIONS TO VISIBILITY.

* - THESE STATIONS ARE NOT NWS STATIONS...THUS NOT UNDER NWS
QUALITY CONTROL.  THEY ALSO DO NOT REPORT WEATHER SUCH
AS PRECIPITATION OR FOG.

IAZ001>003-012>014-020>022-031>034-043>046-280800-
   NORTHWEST IOWA

CITY           SKY/WX    TMP DP  RH WIND       PRES   REMARKS
CARROLL *      MOCLDY    61  55  82 SW6       30.09F
CHEROKEE *     PTCLDY    57  57 100 CALM      30.07F
DENISON *      CLEAR     63  54  72 CALM      30.07S
LE MARS *      CLEAR     64  52  63 S6        30.06F
ORANGE CITY *  CLEAR     63  50  63 CALM      30.06F
SHELDON *      CLEAR     61  52  72 S8        30.05S
SIOUX CITY     CLEAR     62  52  69 E7        30.05F
SPENCER        PTCLDY    59  54  83 S5        30.07S
STORM LAKE *   CLEAR     63  52  67 S7        30.09F
$$

IAZ055>058-069>071-079>083-090>094-280800-
   SOUTHWEST IOWA

CITY           SKY/WX    TMP DP  RH WIND       PRES   REMARKS
ATLANTIC *     PTCLDY    59  55  88 SW3       30.11R
AUDUBON *      CLEAR     57  54  88 CALM      30.11S
CLARINDA *     CLEAR     57  57 100 CALM      30.12R
COUNCIL BLFS * CLEAR     64  54  68 SE5       30.08S
CRESTON *      CLEAR     63  55  77 S7        30.12S
HARLAN  *      CLEAR     59  59 100 CALM      30.13R
LAMONI         PTCLDY    67  57  70 S7        30.13R
RED OAK *      CLEAR     59  57  94 CALM      30.10R
SHENANDOAH *   CLEAR     63  55  77 E3        30.09S
$$

IAZ047>049-059>061-072>074-084-280800-
   CENTRAL IOWA

CITY           SKY/WX    TMP DP  RH WIND       PRES   REMARKS
AMES           PTCLDY    61  58  90 CALM      30.10S
ANKENY *       CLEAR     61  59  94 SE3       30.10S
CHARITON *     CLEAR     63  57  82 SE7       30.12S
DES MOINES     PTCLDY    66  58  75 S8        30.10F
GRINNELL*      PTCLDY    63  57  82 S6        30.13R
KNOXVILLE *    CLEAR     63  57  82 S6        30.11S
MARSHALLTOWN   CLEAR     64  56  75 S6        30.10F
PELLA *        PTCLDY    63  61  94 SE3       30.13S
PERRY *          N/A     61  59  94 S6        30.09F
$$

IAZ004>006-015-016-023>025-035-036-280800-
   NORTH CENTRAL IOWA

CITY           SKY/WX    TMP DP  RH WIND       PRES   REMARKS
ALGONA *       CLEAR     63  57  82 S8        30.08S
CLARION *      CLEAR     64 N/A N/A S10       30.10R
ESTHERVILLE    PTCLDY    60  54  80 S8        30.07S
FORT DODGE *   CLEAR     64  54  68 S3        30.10S
MASON CITY     CLEAR     59  55  87 S7        30.10S
FOREST CITY *  CLEAR     54  54 100 CALM      30.09S
IOWA FALLS *     N/A     63  57  82 S7        30.12S
$$

IAZ007>011-017>019-026>030-037>042-050>054-066-280800-
   NORTHEAST IOWA

CITY           SKY/WX    TMP DP  RH WIND       PRES   REMARKS
CEDAR RAPIDS   CLEAR     62  58  86 SE5       30.12S
CHARLES CITY *   N/A    N/A N/A N/A S7        30.10F
CLINTON *      CLEAR     63  55  77 S5        30.16F
DECORAH *      MOCLDY    64  57  77 S5        30.10S
DUBUQUE        CLEAR     59  56  89 S6        30.14S
MONTICELLO *   CLEAR     61  59  94 CALM      30.13S
OELWEIN *      CLEAR     63  57  82 S6        30.12F
WATERLOO       CLEAR     63  56  78 S7        30.10S
$$

IAZ064-065-067-068-078-280800-
   EAST CENTRAL IOWA

CITY           SKY/WX    TMP DP  RH WIND       PRES   REMARKS
DAVENPORT      CLEAR     62  56  80 S5        30.14F
IOWA CITY      CLEAR     62  59  90 CALM      30.14F
MT. PLEASANT * PTCLDY    61  57  88 S6        30.14F
MUSCATINE *    CLEAR     63  59  88 CALM      30.14F
QUAD CITIES    CLEAR     60  55  83 CALM      30.14S
$$

IAZ062-063-075>077-085>089-095>099-280800-
   SOUTHEAST IOWA

CITY           SKY/WX    TMP DP  RH WIND       PRES   REMARKS
BURLINGTON     PTCLDY    62  58  86 S3        30.14F
FAIRFIELD *    CLEAR     64  55  72 S5        30.14S
FORT MADISON *   N/A     61  57  88 S5        30.15F
KEOKUK *       CLEAR     61  59  94 SE3       30.14S
OSKALOOSA *      N/A     61  57  88 S6        30.14R
CENTERVILLE *  CLEAR     61  61 100 SE5       30.15R
OTTUMWA        PTCLDY    63  56  78 S6        30.13S
WASHINGTON *   CLEAR     61  57  88 S5        30.15S FOG
$$

ABBREVIATIONS USED IN REMARKS
   TC - TEMPERATURES IN CELSIUS
  WCI - WIND CHILL INDEX
   HX - HEAT INDEX
  VSB - VISIBILITY
$$




USA.gov is the U.S. government's official web portal to all federal, state and local government web resources and services.